Time,TemperatureF,DewpointF,PressureIn,WindDirection,WindDirectionDegrees,WindSpeedMPH,WindSpeedGustMPH,Humidity,HourlyPrecipIn,Conditions,Clouds,dailyrainin,SoftwareType,DateUTC
2013-02-10 00:01:00,43.7,43.4,30.17,SE,137,0.0,0.0,99,0.02,RA,,0.00,WeatherDisplay:10.37,2013-02-10 08:01:00,
2013-02-10 00:06:00,43.6,43.3,30.17,SE,137,0.0,0.0,99,0.02,RA,,0.00,WeatherDisplay:10.37,2013-02-10 08:06:00,
2013-02-10 00:11:00,43.5,43.2,30.17,SE,137,0.0,0.0,99,0.02,CLR,,0.00,WeatherDisplay:10.37,2013-02-10 08:11:00,
2013-02-10 00:16:00,43.5,43.2,30.17,SE,137,0.0,0.0,99,0.01,CLR,,0.00,WeatherDisplay:10.37,2013-02-10 08:16:00,
2013-02-10 00:21:00,43.5,43.2,30.17,SE,137,0.0,0.0,99,0.01,CLR,,0.00,WeatherDisplay:10.37,2013-02-10 08:21:00,
2013-02-10 00:26:00,43.5,43.2,30.17,SE,137,0.0,0.0,99,0.01,CLR,,0.00,WeatherDisplay:10.37,2013-02-10 08:26:00,
2013-02-10 00:31:00,43.5,43.2,30.17,SE,137,0.0,0.0,99,0.01,CLR,,0.00,WeatherDisplay:10.37,2013-02-10 08:31:00,
2013-02-10 00:36:00,43.5,43.2,30.17,SE,137,0.0,0.0,99,0.01,CLR,,0.00,WeatherDisplay:10.37,2013-02-10 08:36:00,
2013-02-10 00:41:00,43.5,43.2,30.17,SE,137,0.0,0.0,99,0.01,CLR,,0.00,WeatherDisplay:10.37,2013-02-10 08:41:00,
2013-02-10 00:46:00,43.5,43.2,30.17,SE,137,0.0,0.0,99,0.01,CLR,,0.00,WeatherDisplay:10.37,2013-02-10 08:46:00,
2013-02-10 00:51:00,43.5,43.2,30.17,SE,137,0.0,0.0,99,0.01,RA,,0.01,WeatherDisplay:10.37,2013-02-10 08:51:00,
2013-02-10 00:56:00,43.5,43.2,30.17,SE,137,0.0,0.0,99,0.01,RA,,0.01,WeatherDisplay:10.37,2013-02-10 08:56:00,
2013-02-10 01:01:00,43.5,43.2,30.17,SE,137,0.0,0.0,99,0.01,CLR,,0.01,WeatherDisplay:10.37,2013-02-10 09:01:00,
2013-02-10 01:06:00,43.4,43.1,30.17,SE,137,0.0,0.0,99,0.01,CLR,,0.01,WeatherDisplay:10.37,2013-02-10 09:06:00,
2013-02-10 01:11:00,43.5,43.2,30.17,SE,137,0.0,0.0,99,0.01,CLR,,0.01,WeatherDisplay:10.37,2013-02-10 09:11:00,
2013-02-10 01:16:00,43.4,43.1,30.17,SE,137,0.0,0.1,99,0.01,CLR,,0.01,WeatherDisplay:10.37,2013-02-10 09:16:00,
2013-02-10 01:21:00,43.5,43.2,30.17,SE,137,0.0,0.0,99,0.01,CLR,,0.01,WeatherDisplay:10.37,2013-02-10 09:21:00,
2013-02-10 01:26:00,43.5,43.2,30.17,SE,137,0.0,0.0,99,0.01,CLR,,0.01,WeatherDisplay:10.37,2013-02-10 09:26:00,
2013-02-10 01:31:00,43.4,43.1,30.17,SE,137,0.0,0.0,99,0.01,CLR,,0.01,WeatherDisplay:10.37,2013-02-10 09:31:00,
2013-02-10 01:36:00,43.5,43.2,30.17,SE,137,0.0,0.0,99,0.01,CLR,,0.01,WeatherDisplay:10.37,2013-02-10 09:36:00,
2013-02-10 01:41:00,43.5,43.2,30.17,SE,137,0.0,0.0,99,0.01,CLR,,0.01,WeatherDisplay:10.37,2013-02-10 09:41:00,
2013-02-10 01:46:00,43.5,43.2,30.18,SE,137,0.0,0.0,99,0.01,CLR,,0.01,WeatherDisplay:10.37,2013-02-10 09:46:00,
2013-02-10 01:51:00,43.5,43.2,30.18,SE,137,0.0,0.0,99,0.00,CLR,,0.01,WeatherDisplay:10.37,2013-02-10 09:51:00,
2013-02-10 01:56:00,43.4,43.1,30.17,SE,137,0.0,0.0,99,0.00,CLR,,0.01,WeatherDisplay:10.37,2013-02-10 09:56:00,
2013-02-10 02:01:00,43.4,43.1,30.17,SE,137,0.0,0.0,99,0.00,CLR,,0.01,WeatherDisplay:10.37,2013-02-10 10:01:00,
2013-02-10 02:06:00,43.3,43.0,30.18,SE,137,0.0,0.0,99,0.00,CLR,,0.01,WeatherDisplay:10.37,2013-02-10 10:06:00,
2013-02-10 02:11:00,43.3,43.0,30.18,SE,137,0.0,0.0,99,0.00,CLR,,0.01,WeatherDisplay:10.37,2013-02-10 10:11:00,
2013-02-10 02:16:00,43.3,43.0,30.18,SE,137,0.0,0.0,99,0.00,CLR,,0.01,WeatherDisplay:10.37,2013-02-10 10:16:00,
2013-02-10 02:21:00,43.3,43.0,30.18,SE,137,0.0,0.0,99,0.00,CLR,,0.01,WeatherDisplay:10.37,2013-02-10 10:21:00,
2013-02-10 02:26:00,43.4,43.1,30.18,SE,137,0.0,0.0,99,0.00,CLR,,0.01,WeatherDisplay:10.37,2013-02-10 10:26:00,
2013-02-10 02:31:00,43.4,43.1,30.18,SE,137,0.0,0.0,99,0.00,CLR,,0.01,WeatherDisplay:10.37,2013-02-10 10:31:00,
2013-02-10 02:36:00,43.4,43.1,30.18,SE,137,0.0,0.0,99,0.00,CLR,,0.01,WeatherDisplay:10.37,2013-02-10 10:36:00,
2013-02-10 02:41:00,43.5,43.2,30.17,SE,137,0.0,0.0,99,0.00,CLR,,0.01,WeatherDisplay:10.37,2013-02-10 10:41:00,
2013-02-10 02:46:00,43.4,43.1,30.17,SE,137,0.0,0.0,99,0.00,CLR,,0.01,WeatherDisplay:10.37,2013-02-10 10:46:00,
2013-02-10 02:51:00,43.5,43.2,30.18,SE,137,0.0,0.0,99,0.00,CLR,,0.01,WeatherDisplay:10.37,2013-02-10 10:51:00,
2013-02-10 02:56:00,43.4,43.1,30.18,SE,137,0.0,0.0,99,0.00,CLR,,0.01,WeatherDisplay:10.37,2013-02-10 10:56:00,
2013-02-10 03:01:00,43.5,43.2,30.18,SE,137,0.0,0.0,99,0.00,CLR,,0.01,WeatherDisplay:10.37,2013-02-10 11:01:00,
2013-02-10 03:06:00,43.5,43.2,30.18,SE,137,0.0,0.0,99,0.00,CLR,,0.01,WeatherDisplay:10.37,2013-02-10 11:06:00,
2013-02-10 03:11:00,43.5,43.2,30.18,SE,137,0.0,0.0,99,0.00,CLR,,0.01,WeatherDisplay:10.37,2013-02-10 11:11:00,
2013-02-10 03:16:00,43.4,43.1,30.18,SE,137,0.0,0.0,99,0.00,CLR,,0.01,WeatherDisplay:10.37,2013-02-10 11:16:00,
2013-02-10 03:21:00,43.4,43.1,30.18,SE,137,0.0,0.0,99,0.00,CLR,,0.01,WeatherDisplay:10.37,2013-02-10 11:21:00,
2013-02-10 03:26:00,43.4,43.1,30.18,SE,137,0.0,0.0,99,0.00,CLR,,0.01,WeatherDisplay:10.37,2013-02-10 11:26:00,
2013-02-10 03:31:00,43.4,43.1,30.18,SE,137,0.0,0.0,99,0.00,CLR,,0.01,WeatherDisplay:10.37,2013-02-10 11:31:00,
2013-02-10 03:36:00,43.2,42.9,30.18,SE,137,0.0,0.0,99,0.00,CLR,,0.01,WeatherDisplay:10.37,2013-02-10 11:36:00,
2013-02-10 03:41:00,43.3,43.0,30.18,SE,137,0.0,0.0,99,0.00,CLR,,0.01,WeatherDisplay:10.37,2013-02-10 11:41:00,
2013-02-10 03:46:00,43.2,42.9,30.18,SE,137,0.0,0.0,99,0.00,CLR,,0.01,WeatherDisplay:10.37,2013-02-10 11:46:00,
2013-02-10 03:51:00,43.3,43.0,30.18,SE,137,0.0,0.0,99,0.00,CLR,,0.01,WeatherDisplay:10.37,2013-02-10 11:51:00,
2013-02-10 03:56:00,43.2,42.9,30.17,SE,137,0.0,0.0,99,0.00,CLR,,0.01,WeatherDisplay:10.37,2013-02-10 11:56:00,
2013-02-10 04:01:00,43.2,42.9,30.18,SE,137,0.0,0.0,99,0.00,CLR,,0.01,WeatherDisplay:10.37,2013-02-10 12:01:00,
2013-02-10 04:06:00,43.1,42.8,30.18,SE,137,0.0,0.0,99,0.00,CLR,,0.01,WeatherDisplay:10.37,2013-02-10 12:06:00,
2013-02-10 04:11:00,43.2,42.9,30.17,SE,137,0.0,0.0,99,0.00,CLR,,0.01,WeatherDisplay:10.37,2013-02-10 12:11:00,
2013-02-10 04:16:00,43.2,42.9,30.17,SE,137,0.0,0.0,99,0.00,CLR,,0.01,WeatherDisplay:10.37,2013-02-10 12:16:00,
2013-02-10 04:21:00,43.1,42.8,30.17,NNW,329,4.6,4.6,99,0.00,CLR,,0.01,WeatherDisplay:10.37,2013-02-10 12:21:00,
2013-02-10 04:26:00,43.1,42.8,30.17,WNW,302,1.2,0.0,99,0.00,CLR,,0.01,WeatherDisplay:10.37,2013-02-10 12:26:00,
2013-02-10 04:31:00,43.1,42.8,30.17,WNW,302,0.0,0.0,99,0.00,CLR,,0.01,WeatherDisplay:10.37,2013-02-10 12:31:00,
2013-02-10 04:36:00,43.0,42.7,30.17,NW,309,3.5,0.0,99,0.00,CLR,,0.01,WeatherDisplay:10.37,2013-02-10 12:36:00,
2013-02-10 04:41:00,43.0,42.7,30.18,NW,319,0.0,0.0,99,0.00,CLR,,0.01,WeatherDisplay:10.37,2013-02-10 12:41:00,
2013-02-10 04:46:00,42.9,42.6,30.18,NNW,346,5.8,5.8,99,0.00,CLR,,0.01,WeatherDisplay:10.37,2013-02-10 12:46:00,
2013-02-10 04:51:00,43.1,42.8,30.18,NNW,346,2.3,2.3,99,0.00,CLR,,0.01,WeatherDisplay:10.37,2013-02-10 12:51:00,
2013-02-10 04:56:00,43.0,42.7,30.18,NW,326,3.8,3.8,99,0.00,CLR,,0.01,WeatherDisplay:10.37,2013-02-10 12:56:00,
2013-02-10 05:01:00,43.0,42.7,30.18,NW,322,5.8,5.8,99,0.00,CLR,,0.01,WeatherDisplay:10.37,2013-02-10 13:01:00,
2013-02-10 05:06:00,42.9,42.6,30.18,NW,316,3.5,3.5,99,0.00,CLR,,0.01,WeatherDisplay:10.37,2013-02-10 13:06:00,
2013-02-10 05:11:00,43.0,42.7,30.18,NNW,340,3.5,3.5,99,0.00,CLR,,0.01,WeatherDisplay:10.37,2013-02-10 13:11:00,
2013-02-10 05:16:00,43.0,42.7,30.18,NNW,330,2.3,2.3,99,0.00,CLR,,0.01,WeatherDisplay:10.37,2013-02-10 13:16:00,
2013-02-10 05:21:00,43.0,42.7,30.18,North,357,3.5,3.5,99,0.00,CLR,,0.01,WeatherDisplay:10.37,2013-02-10 13:21:00,
2013-02-10 05:26:00,43.0,42.7,30.18,NNW,335,4.6,4.6,99,0.00,CLR,,0.01,WeatherDisplay:10.37,2013-02-10 13:26:00,
2013-02-10 05:31:00,43.0,42.7,30.18,NNW,342,0.0,0.0,99,0.00,CLR,,0.01,WeatherDisplay:10.37,2013-02-10 13:31:00,
2013-02-10 05:36:00,43.1,42.8,30.18,NNW,342,0.0,0.0,99,0.00,CLR,,0.01,WeatherDisplay:10.37,2013-02-10 13:36:00,
2013-02-10 05:41:00,43.1,42.8,30.18,WNW,301,0.0,0.0,99,0.00,CLR,,0.01,WeatherDisplay:10.37,2013-02-10 13:41:00,
2013-02-10 05:46:00,43.0,42.7,30.18,WNW,301,0.0,0.0,99,0.00,CLR,,0.01,WeatherDisplay:10.37,2013-02-10 13:46:00,
2013-02-10 05:51:00,43.0,42.7,30.18,WNW,301,0.0,0.0,99,0.00,CLR,,0.01,WeatherDisplay:10.37,2013-02-10 13:51:00,
2013-02-10 05:56:00,43.1,42.8,30.18,WNW,301,0.0,0.0,99,0.00,CLR,,0.01,WeatherDisplay:10.37,2013-02-10 13:56:00,
2013-02-10 06:01:00,43.0,42.7,30.18,NW,311,2.3,2.3,99,0.00,CLR,,0.01,WeatherDisplay:10.37,2013-02-10 14:01:00,
2013-02-10 06:06:00,43.1,42.8,30.18,NW,311,0.0,0.0,99,0.00,CLR,,0.01,WeatherDisplay:10.37,2013-02-10 14:06:00,
2013-02-10 06:11:00,43.0,42.7,30.18,North,3,0.0,0.0,99,0.00,CLR,,0.01,WeatherDisplay:10.37,2013-02-10 14:11:00,
2013-02-10 06:16:00,43.0,42.7,30.18,North,3,0.0,0.0,99,0.00,CLR,,0.01,WeatherDisplay:10.37,2013-02-10 14:16:00,
2013-02-10 06:21:00,43.1,42.8,30.19,NNW,340,0.0,0.0,99,0.00,CLR,,0.01,WeatherDisplay:10.37,2013-02-10 14:21:00,
2013-02-10 06:26:00,43.2,42.9,30.19,NW,319,0.0,0.0,99,0.00,CLR,,0.01,WeatherDisplay:10.37,2013-02-10 14:26:00,
2013-02-10 06:31:00,43.2,42.9,30.19,NW,319,0.0,0.0,99,0.00,CLR,,0.01,WeatherDisplay:10.37,2013-02-10 14:31:00,
2013-02-10 06:36:00,43.2,42.9,30.19,NW,319,0.0,0.0,99,0.00,CLR,,0.01,WeatherDisplay:10.37,2013-02-10 14:36:00,
2013-02-10 06:41:00,43.1,42.8,30.19,NW,319,0.0,0.0,99,0.00,CLR,,0.01,WeatherDisplay:10.37,2013-02-10 14:41:00,
2013-02-10 06:46:00,43.1,42.8,30.19,NW,319,0.0,0.0,99,0.00,CLR,,0.01,WeatherDisplay:10.37,2013-02-10 14:46:00,
2013-02-10 06:51:00,43.1,42.8,30.19,NW,319,0.0,0.0,99,0.00,CLR,,0.01,WeatherDisplay:10.37,2013-02-10 14:51:00,
2013-02-10 06:56:00,43.1,42.8,30.19,NW,319,0.0,0.0,99,0.00,CLR,,0.01,WeatherDisplay:10.37,2013-02-10 14:56:00,
2013-02-10 07:01:00,43.1,42.8,30.19,NW,319,0.0,0.0,99,0.00,CLR,,0.01,WeatherDisplay:10.37,2013-02-10 15:01:00,
2013-02-10 07:06:00,43.1,42.8,30.19,NW,319,0.0,0.0,99,0.00,CLR,,0.01,WeatherDisplay:10.37,2013-02-10 15:06:00,
2013-02-10 07:11:00,43.1,42.8,30.19,NW,319,0.0,0.0,99,0.00,CLR,,0.01,WeatherDisplay:10.37,2013-02-10 15:11:00,
2013-02-10 07:16:00,43.1,42.8,30.19,NW,319,0.0,0.0,99,0.00,CLR,,0.01,WeatherDisplay:10.37,2013-02-10 15:16:00,
2013-02-10 07:21:00,43.2,42.9,30.19,NW,319,0.0,0.0,99,0.00,CLR,,0.01,WeatherDisplay:10.37,2013-02-10 15:21:00,
2013-02-10 07:26:00,43.2,42.9,30.20,NW,319,0.0,0.0,99,0.00,CLR,,0.01,WeatherDisplay:10.37,2013-02-10 15:26:00,
2013-02-10 07:31:00,43.2,42.9,30.20,NW,319,0.0,0.0,99,0.00,CLR,,0.01,WeatherDisplay:10.37,2013-02-10 15:31:00,
2013-02-10 07:36:00,43.1,42.8,30.20,NW,319,0.0,0.0,99,0.00,CLR,,0.01,WeatherDisplay:10.37,2013-02-10 15:36:00,
2013-02-10 07:41:00,43.2,42.9,30.20,NW,319,0.0,0.0,99,0.00,CLR,,0.01,WeatherDisplay:10.37,2013-02-10 15:41:00,
2013-02-10 07:46:00,43.2,42.9,30.20,NW,319,0.0,0.0,99,0.00,CLR,,0.01,WeatherDisplay:10.37,2013-02-10 15:46:00,
2013-02-10 07:51:00,43.1,42.8,30.20,NW,319,0.0,0.0,99,0.00,CLR,,0.01,WeatherDisplay:10.37,2013-02-10 15:51:00,
2013-02-10 07:56:00,43.1,42.8,30.20,NW,319,0.0,0.0,99,0.00,CLR,,0.01,WeatherDisplay:10.37,2013-02-10 15:56:00,
2013-02-10 08:01:00,43.1,42.8,30.20,NW,319,0.0,0.0,99,0.00,CLR,,0.01,WeatherDisplay:10.37,2013-02-10 16:01:00,
2013-02-10 08:06:00,43.3,43.0,30.21,NW,319,0.0,0.0,99,0.00,CLR,,0.01,WeatherDisplay:10.37,2013-02-10 16:06:00,
2013-02-10 08:11:00,43.3,43.0,30.21,NNE,25,4.3,4.3,99,0.00,CLR,,0.01,WeatherDisplay:10.37,2013-02-10 16:11:00,
2013-02-10 08:16:00,43.3,43.0,30.21,North,10,4.6,4.6,99,0.00,CLR,,0.01,WeatherDisplay:10.37,2013-02-10 16:16:00,
2013-02-10 08:21:00,43.2,42.7,30.20,North,353,4.6,4.6,98,0.00,CLR,,0.01,WeatherDisplay:10.37,2013-02-10 16:21:00,
2013-02-10 08:26:00,43.3,42.8,30.21,NNE,27,4.6,4.6,98,0.00,CLR,,0.01,WeatherDisplay:10.37,2013-02-10 16:26:00,
2013-02-10 08:31:00,43.4,42.9,30.21,NNW,337,1.2,1.2,98,0.00,CLR,,0.01,WeatherDisplay:10.37,2013-02-10 16:31:00,
2013-02-10 08:36:00,43.5,43.0,30.20,NE,44,0.0,0.0,98,0.00,CLR,,0.01,WeatherDisplay:10.37,2013-02-10 16:36:00,
2013-02-10 08:41:00,43.6,43.1,30.20,North,6,0.0,0.0,98,0.00,CLR,,0.01,WeatherDisplay:10.37,2013-02-10 16:41:00,
2013-02-10 08:46:00,43.5,43.0,30.20,NNE,32,6.9,6.9,98,0.00,CLR,,0.01,WeatherDisplay:10.37,2013-02-10 16:46:00,
2013-02-10 08:51:00,43.5,43.0,30.21,NE,37,5.8,5.8,98,0.00,CLR,,0.01,WeatherDisplay:10.37,2013-02-10 16:51:00,
2013-02-10 08:56:00,43.5,42.7,30.21,NE,44,6.9,6.9,97,0.00,CLR,,0.01,WeatherDisplay:10.37,2013-02-10 16:56:00,
2013-02-10 09:01:00,43.7,43.2,30.21,ENE,62,4.7,4.7,98,0.00,CLR,,0.01,WeatherDisplay:10.37,2013-02-10 17:01:00,
2013-02-10 09:06:00,43.5,42.7,30.21,NNE,16,4.6,4.6,97,0.00,CLR,,0.01,WeatherDisplay:10.37,2013-02-10 17:06:00,
2013-02-10 09:11:00,43.7,42.9,30.21,NNW,346,6.9,6.9,97,0.00,CLR,,0.01,WeatherDisplay:10.37,2013-02-10 17:11:00,
2013-02-10 09:16:00,43.7,42.9,30.21,North,359,6.9,6.9,97,0.00,CLR,,0.01,WeatherDisplay:10.37,2013-02-10 17:16:00,
2013-02-10 09:21:00,43.8,42.7,30.21,NNE,18,8.1,8.1,96,0.00,CLR,,0.01,WeatherDisplay:10.37,2013-02-10 17:21:00,
2013-02-10 09:26:00,43.6,42.5,30.21,NNE,30,6.9,6.9,96,0.00,CLR,,0.01,WeatherDisplay:10.37,2013-02-10 17:26:00,
2013-02-10 09:31:00,43.6,42.5,30.22,NNE,28,6.9,6.9,96,0.00,CLR,,0.01,WeatherDisplay:10.37,2013-02-10 17:31:00,
2013-02-10 09:36:00,43.5,42.4,30.22,NNE,21,8.1,8.1,96,0.00,CLR,,0.01,WeatherDisplay:10.37,2013-02-10 17:36:00,
2013-02-10 09:41:00,43.5,42.4,30.22,NNE,27,8.1,8.1,96,0.00,CLR,,0.01,WeatherDisplay:10.37,2013-02-10 17:41:00,
2013-02-10 09:46:00,43.6,42.5,30.21,NNE,25,6.9,6.9,96,0.00,CLR,,0.01,WeatherDisplay:10.37,2013-02-10 17:46:00,
2013-02-10 09:51:00,43.6,42.5,30.22,NNE,27,6.9,6.9,96,0.00,CLR,,0.01,WeatherDisplay:10.37,2013-02-10 17:51:00,
2013-02-10 09:56:00,43.6,42.5,30.22,NNE,32,5.8,5.8,96,0.00,CLR,,0.01,WeatherDisplay:10.37,2013-02-10 17:56:00,
2013-02-10 10:01:00,44.0,42.9,30.22,North,8,3.5,3.5,96,0.00,CLR,,0.01,WeatherDisplay:10.37,2013-02-10 18:01:00,
2013-02-10 10:06:00,44.0,42.9,30.22,NNE,23,4.6,4.6,96,0.00,CLR,,0.01,WeatherDisplay:10.37,2013-02-10 18:06:00,
2013-02-10 10:11:00,43.8,42.7,30.21,NE,38,5.8,5.8,96,0.00,CLR,,0.01,WeatherDisplay:10.37,2013-02-10 18:11:00,
2013-02-10 10:16:00,44.0,42.9,30.21,SE,141,1.2,1.2,96,0.00,CLR,,0.01,WeatherDisplay:10.37,2013-02-10 18:16:00,
2013-02-10 10:21:00,44.2,43.1,30.21,NE,47,4.6,4.6,96,0.00,CLR,,0.01,WeatherDisplay:10.37,2013-02-10 18:21:00,
2013-02-10 10:26:00,44.3,43.0,30.21,NNE,25,3.5,3.5,95,0.00,CLR,,0.01,WeatherDisplay:10.37,2013-02-10 18:26:00,
2013-02-10 10:31:00,44.6,43.5,30.21,NNE,18,1.2,0.0,96,0.00,CLR,,0.01,WeatherDisplay:10.37,2013-02-10 18:31:00,
2013-02-10 10:36:00,44.6,43.0,30.21,NNE,25,3.6,3.6,94,0.00,CLR,,0.01,WeatherDisplay:10.37,2013-02-10 18:36:00,
2013-02-10 10:41:00,44.7,43.4,30.21,North,11,4.6,4.6,95,0.00,CLR,,0.01,WeatherDisplay:10.37,2013-02-10 18:41:00,
2013-02-10 10:46:00,44.8,43.7,30.21,East,97,0.0,0.0,96,0.00,CLR,,0.01,WeatherDisplay:10.37,2013-02-10 18:46:00,
2013-02-10 10:51:00,44.7,42.8,30.22,NNE,32,4.6,4.6,93,0.00,CLR,,0.01,WeatherDisplay:10.37,2013-02-10 18:51:00,
2013-02-10 10:56:00,44.4,42.8,30.22,NNE,30,6.9,6.9,94,0.00,CLR,,0.01,WeatherDisplay:10.37,2013-02-10 18:56:00,
2013-02-10 11:01:00,44.3,42.7,30.21,North,8,6.9,6.9,94,0.00,CLR,,0.01,WeatherDisplay:10.37,2013-02-10 19:01:00,
2013-02-10 11:06:00,44.6,43.5,30.22,ENE,75,3.5,3.5,96,0.00,CLR,,0.01,WeatherDisplay:10.37,2013-02-10 19:06:00,
2013-02-10 11:11:00,44.8,43.2,30.21,North,1,4.6,4.6,94,0.00,CLR,,0.01,WeatherDisplay:10.37,2013-02-10 19:11:00,
2013-02-10 11:16:00,44.9,43.3,30.21,North,350,3.5,3.5,94,0.00,CLR,,0.01,WeatherDisplay:10.37,2013-02-10 19:16:00,
2013-02-10 11:21:00,44.8,43.2,30.22,North,11,5.8,5.8,94,0.00,CLR,,0.01,WeatherDisplay:10.37,2013-02-10 19:21:00,
2013-02-10 11:26:00,44.7,43.1,30.21,NNE,30,5.8,5.8,94,0.00,CLR,,0.01,WeatherDisplay:10.37,2013-02-10 19:26:00,
2013-02-10 11:31:00,44.5,42.6,30.21,NE,44,4.6,4.6,93,0.00,CLR,,0.01,WeatherDisplay:10.37,2013-02-10 19:31:00,
2013-02-10 11:36:00,44.6,43.0,30.21,NNE,25,5.8,5.8,94,0.00,CLR,,0.01,WeatherDisplay:10.37,2013-02-10 19:36:00,
2013-02-10 11:41:00,44.6,43.0,30.21,NE,34,5.8,5.8,94,0.00,CLR,,0.01,WeatherDisplay:10.37,2013-02-10 19:41:00,
2013-02-10 11:46:00,44.7,43.4,30.21,NNE,21,4.6,4.6,95,0.00,CLR,,0.01,WeatherDisplay:10.37,2013-02-10 19:46:00,
2013-02-10 11:51:00,44.8,43.2,30.21,North,3,5.8,5.8,94,0.00,CLR,,0.01,WeatherDisplay:10.37,2013-02-10 19:51:00,
2013-02-10 11:56:00,45.0,43.1,30.21,North,10,4.6,4.6,93,0.00,CLR,,0.01,WeatherDisplay:10.37,2013-02-10 19:56:00,
2013-02-10 12:01:00,45.5,44.2,30.21,North,6,5.8,5.8,95,0.00,CLR,,0.01,WeatherDisplay:10.37,2013-02-10 20:01:00,
2013-02-10 12:06:00,45.2,42.2,30.21,NE,45,7.6,7.6,89,0.00,CLR,,0.01,WeatherDisplay:10.37,2013-02-10 20:06:00,
2013-02-10 12:11:00,45.2,43.0,30.20,NNW,332,8.1,8.1,92,0.00,CLR,,0.01,WeatherDisplay:10.37,2013-02-10 20:11:00,
2013-02-10 12:16:00,45.3,42.8,30.20,North,359,4.6,4.6,91,0.00,CLR,,0.01,WeatherDisplay:10.37,2013-02-10 20:16:00,
2013-02-10 12:21:00,45.5,42.7,30.20,NNE,21,6.9,6.9,90,0.00,CLR,,0.01,WeatherDisplay:10.37,2013-02-10 20:21:00,
2013-02-10 12:26:00,45.6,42.5,30.20,NE,34,8.1,8.1,89,0.00,CLR,,0.01,WeatherDisplay:10.37,2013-02-10 20:26:00,
2013-02-10 12:31:00,45.8,43.0,30.20,North,349,10.4,10.4,90,0.00,CLR,,0.01,WeatherDisplay:10.37,2013-02-10 20:31:00,
2013-02-10 12:36:00,45.8,43.0,30.20,NW,313,5.8,5.8,90,0.00,CLR,,0.01,WeatherDisplay:10.37,2013-02-10 20:36:00,
2013-02-10 12:41:00,45.6,42.0,30.19,NE,40,5.8,5.8,87,0.00,CLR,,0.01,WeatherDisplay:10.37,2013-02-10 20:41:00,
2013-02-10 12:46:00,45.8,42.4,30.19,NNE,27,6.2,6.2,88,0.00,CLR,,0.01,WeatherDisplay:10.37,2013-02-10 20:46:00,
2013-02-10 12:51:00,45.8,42.4,30.19,North,10,4.6,4.6,88,0.00,CLR,,0.01,WeatherDisplay:10.37,2013-02-10 20:51:00,
2013-02-10 12:56:00,46.0,42.9,30.19,NW,326,6.9,6.9,89,0.00,CLR,,0.01,WeatherDisplay:10.37,2013-02-10 20:56:00,
2013-02-10 13:01:00,46.1,42.1,30.19,North,356,5.8,5.8,86,0.00,CLR,,0.01,WeatherDisplay:10.37,2013-02-10 21:01:00,
2013-02-10 13:06:00,45.9,42.2,30.19,NNE,28,8.1,8.1,87,0.00,CLR,,0.01,WeatherDisplay:10.37,2013-02-10 21:06:00,
2013-02-10 13:11:00,45.8,42.4,30.19,North,11,5.8,5.8,88,0.00,CLR,,0.01,WeatherDisplay:10.37,2013-02-10 21:11:00,
2013-02-10 13:16:00,45.9,42.8,30.19,North,359,5.8,5.8,89,0.00,CLR,,0.01,WeatherDisplay:10.37,2013-02-10 21:16:00,
2013-02-10 13:21:00,45.9,42.5,30.19,NNW,332,5.8,5.8,88,0.00,CLR,,0.01,WeatherDisplay:10.37,2013-02-10 21:21:00,
2013-02-10 13:26:00,45.9,42.5,30.19,NNW,347,4.6,4.6,88,0.00,CLR,,0.01,WeatherDisplay:10.37,2013-02-10 21:26:00,
2013-02-10 13:31:00,45.7,42.3,30.19,North,10,5.8,5.8,88,0.00,CLR,,0.01,WeatherDisplay:10.37,2013-02-10 21:31:00,
2013-02-10 13:36:00,45.7,42.6,30.19,NNE,32,4.6,4.6,89,0.00,CLR,,0.01,WeatherDisplay:10.37,2013-02-10 21:36:00,
2013-02-10 13:41:00,45.7,42.6,30.19,North,11,4.6,4.6,89,0.00,CLR,,0.01,WeatherDisplay:10.37,2013-02-10 21:41:00,
2013-02-10 13:46:00,45.7,42.1,30.19,NW,325,5.8,5.8,87,0.00,CLR,,0.01,WeatherDisplay:10.37,2013-02-10 21:46:00,
2013-02-10 13:51:00,45.7,42.6,30.19,North,359,3.7,3.7,89,0.00,CLR,,0.01,WeatherDisplay:10.37,2013-02-10 21:51:00,
2013-02-10 13:56:00,45.9,42.8,30.19,NNE,14,4.6,4.6,89,0.00,CLR,,0.01,WeatherDisplay:10.37,2013-02-10 21:56:00,
2013-02-10 14:01:00,45.8,42.7,30.19,North,6,4.6,4.6,89,0.00,CLR,,0.01,WeatherDisplay:10.37,2013-02-10 22:01:00,
2013-02-10 14:06:00,45.6,42.3,30.19,NE,41,6.0,6.0,88,0.00,CLR,,0.01,WeatherDisplay:10.37,2013-02-10 22:06:00,
2013-02-10 14:11:00,45.7,42.9,30.19,NNE,20,4.6,4.6,90,0.00,CLR,,0.01,WeatherDisplay:10.37,2013-02-10 22:11:00,
2013-02-10 14:16:00,45.7,42.9,30.19,NNE,17,5.8,5.8,90,0.00,CLR,,0.01,WeatherDisplay:10.37,2013-02-10 22:16:00,
2013-02-10 14:21:00,46.0,42.6,30.18,NNW,335,5.8,5.8,88,0.00,CLR,,0.01,WeatherDisplay:10.37,2013-02-10 22:21:00,
2013-02-10 14:26:00,45.9,42.2,30.18,North,1,6.9,6.9,87,0.00,CLR,,0.01,WeatherDisplay:10.37,2013-02-10 22:26:00,
2013-02-10 14:31:00,45.9,42.2,30.18,NNW,343,8.1,8.1,87,0.00,CLR,,0.01,WeatherDisplay:10.37,2013-02-10 22:31:00,
2013-02-10 14:36:00,45.9,42.5,30.18,North,354,5.8,5.8,88,0.00,CLR,,0.01,WeatherDisplay:10.37,2013-02-10 22:36:00,
2013-02-10 14:41:00,46.0,42.6,30.18,North,349,5.8,5.8,88,0.00,CLR,,0.01,WeatherDisplay:10.37,2013-02-10 22:41:00,
2013-02-10 14:46:00,46.2,42.5,30.18,NNW,343,5.8,5.8,87,0.00,CLR,,0.01,WeatherDisplay:10.37,2013-02-10 22:46:00,
2013-02-10 14:51:00,45.9,41.9,30.18,NNE,20,7.0,7.0,86,0.00,CLR,,0.01,WeatherDisplay:10.37,2013-02-10 22:51:00,
2013-02-10 14:56:00,45.7,41.8,30.18,NNE,18,6.9,6.9,86,0.00,CLR,,0.01,WeatherDisplay:10.37,2013-02-10 22:56:00,
2013-02-10 15:01:00,45.8,42.2,30.18,NNE,18,8.1,8.1,87,0.00,CLR,,0.01,WeatherDisplay:10.37,2013-02-10 23:01:00,
2013-02-10 15:06:00,46.0,42.6,30.18,North,359,4.2,4.2,88,0.00,CLR,,0.01,WeatherDisplay:10.37,2013-02-10 23:06:00,
2013-02-10 15:11:00,46.1,42.4,30.18,NE,37,6.0,6.0,87,0.00,CLR,,0.01,WeatherDisplay:10.37,2013-02-10 23:11:00,
2013-02-10 15:16:00,46.1,42.1,30.18,North,8,4.6,4.6,86,0.00,CLR,,0.01,WeatherDisplay:10.37,2013-02-10 23:16:00,
2013-02-10 15:21:00,46.1,42.7,30.18,North,0,5.0,5.0,88,0.00,CLR,,0.01,WeatherDisplay:10.37,2013-02-10 23:21:00,
2013-02-10 15:26:00,45.9,41.9,30.18,ENE,58,6.9,6.9,86,0.00,CLR,,0.01,WeatherDisplay:10.37,2013-02-10 23:26:00,
2013-02-10 15:31:00,46.0,42.0,30.18,NE,48,6.9,6.9,86,0.00,CLR,,0.01,WeatherDisplay:10.37,2013-02-10 23:31:00,
2013-02-10 15:36:00,46.2,42.2,30.18,North,352,4.6,4.6,86,0.00,CLR,,0.01,WeatherDisplay:10.37,2013-02-10 23:36:00,
2013-02-10 15:41:00,46.3,42.3,30.18,NNW,335,3.5,3.5,86,0.00,CLR,,0.01,WeatherDisplay:10.37,2013-02-10 23:41:00,
2013-02-10 15:46:00,46.3,42.3,30.18,NNE,16,4.5,4.5,86,0.00,CLR,,0.01,WeatherDisplay:10.37,2013-02-10 23:46:00,
2013-02-10 15:51:00,46.2,42.2,30.18,NNW,328,4.8,4.8,86,0.00,CLR,,0.01,WeatherDisplay:10.37,2013-02-10 23:51:00,
2013-02-10 15:56:00,46.3,42.3,30.18,North,354,3.5,3.5,86,0.00,CLR,,0.01,WeatherDisplay:10.37,2013-02-10 23:56:00,
2013-02-10 16:01:00,46.3,42.3,30.18,NW,305,2.3,2.3,86,0.00,CLR,,0.01,WeatherDisplay:10.37,2013-02-11 00:01:00,
2013-02-10 16:06:00,46.1,41.8,30.18,NNE,14,4.6,4.6,85,0.00,CLR,,0.01,WeatherDisplay:10.37,2013-02-11 00:06:00,
2013-02-10 16:11:00,46.2,42.2,30.18,NNE,28,2.3,2.3,86,0.00,CLR,,0.01,WeatherDisplay:10.37,2013-02-11 00:11:00,
2013-02-10 16:16:00,46.2,42.2,30.18,NNE,25,3.5,3.5,86,0.00,CLR,,0.01,WeatherDisplay:10.37,2013-02-11 00:16:00,
2013-02-10 16:21:00,46.0,42.0,30.18,ENE,78,5.8,5.8,86,0.00,CLR,,0.01,WeatherDisplay:10.37,2013-02-11 00:21:00,
2013-02-10 16:26:00,45.9,41.6,30.18,NE,47,6.9,6.9,85,0.00,CLR,,0.01,WeatherDisplay:10.37,2013-02-11 00:26:00,
2013-02-10 16:31:00,46.1,42.1,30.18,North,352,4.6,4.6,86,0.00,CLR,,0.01,WeatherDisplay:10.37,2013-02-11 00:31:00,
2013-02-10 16:36:00,45.9,41.9,30.18,NNE,32,4.7,4.7,86,0.00,CLR,,0.01,WeatherDisplay:10.37,2013-02-11 00:36:00,
2013-02-10 16:41:00,45.8,42.2,30.18,NNE,27,4.8,4.8,87,0.00,CLR,,0.01,WeatherDisplay:10.37,2013-02-11 00:41:00,
2013-02-10 16:46:00,45.8,42.2,30.18,NNE,32,4.6,4.6,87,0.00,CLR,,0.01,WeatherDisplay:10.37,2013-02-11 00:46:00,
2013-02-10 16:51:00,45.8,41.5,30.19,NNE,13,3.5,3.5,85,0.00,CLR,,0.01,WeatherDisplay:10.37,2013-02-11 00:51:00,
2013-02-10 16:56:00,46.0,42.3,30.19,NNW,329,0.0,0.0,87,0.00,CLR,,0.01,WeatherDisplay:10.37,2013-02-11 00:56:00,
2013-02-10 17:01:00,46.0,42.0,30.19,NW,323,2.3,2.3,86,0.00,CLR,,0.01,WeatherDisplay:10.37,2013-02-11 01:01:00,
2013-02-10 17:06:00,45.9,41.9,30.19,NNW,347,3.5,3.5,86,0.00,CLR,,0.01,WeatherDisplay:10.37,2013-02-11 01:06:00,
2013-02-10 17:11:00,45.9,41.9,30.19,NNW,332,3.5,3.5,86,0.00,CLR,,0.01,WeatherDisplay:10.37,2013-02-11 01:11:00,
2013-02-10 17:16:00,45.8,41.9,30.19,North,353,2.7,2.7,86,0.00,CLR,,0.01,WeatherDisplay:10.37,2013-02-11 01:16:00,
2013-02-10 17:21:00,45.9,41.9,30.19,NW,319,2.3,2.3,86,0.00,CLR,,0.01,WeatherDisplay:10.37,2013-02-11 01:21:00,
2013-02-10 17:26:00,45.8,42.2,30.19,NNW,343,3.5,3.5,87,0.00,CLR,,0.01,WeatherDisplay:10.37,2013-02-11 01:26:00,
2013-02-10 17:31:00,45.7,42.3,30.19,NW,319,2.3,2.3,88,0.00,CLR,,0.01,WeatherDisplay:10.37,2013-02-11 01:31:00,
2013-02-10 17:36:00,45.5,41.9,30.19,NW,311,0.0,0.0,87,0.00,CLR,,0.01,WeatherDisplay:10.37,2013-02-11 01:36:00,
2013-02-10 17:41:00,45.6,42.0,30.19,NW,311,0.0,0.0,87,0.00,CLR,,0.01,WeatherDisplay:10.37,2013-02-11 01:41:00,
2013-02-10 17:46:00,45.7,42.3,30.19,NW,311,0.0,0.0,88,0.00,CLR,,0.01,WeatherDisplay:10.37,2013-02-11 01:46:00,
2013-02-10 17:51:00,45.7,42.3,30.19,NNW,328,0.0,0.0,88,0.00,CLR,,0.01,WeatherDisplay:10.37,2013-02-11 01:51:00,
2013-02-10 17:56:00,45.4,42.1,30.19,NNW,330,2.3,0.0,88,0.00,CLR,,0.01,WeatherDisplay:10.37,2013-02-11 01:56:00,
2013-02-10 18:01:00,45.4,42.1,30.19,NNW,330,0.0,0.0,88,0.00,CLR,,0.01,WeatherDisplay:10.37,2013-02-11 02:01:00,
2013-02-10 18:06:00,45.5,42.2,30.19,NNW,330,0.0,0.0,88,0.00,CLR,,0.01,WeatherDisplay:10.37,2013-02-11 02:06:00,
2013-02-10 18:11:00,45.6,42.3,30.19,NNW,330,0.0,0.0,88,0.00,CLR,,0.01,WeatherDisplay:10.37,2013-02-11 02:11:00,
2013-02-10 18:16:00,45.6,42.3,30.19,NNW,330,0.0,0.0,88,0.00,CLR,,0.01,WeatherDisplay:10.37,2013-02-11 02:16:00,
2013-02-10 18:21:00,45.4,42.3,30.19,NNW,330,0.0,0.0,89,0.00,CLR,,0.01,WeatherDisplay:10.37,2013-02-11 02:21:00,
2013-02-10 18:26:00,45.4,42.3,30.19,NNW,330,0.0,0.0,89,0.00,CLR,,0.01,WeatherDisplay:10.37,2013-02-11 02:26:00,
2013-02-10 18:31:00,45.4,42.3,30.19,NNW,330,0.0,0.0,89,0.00,CLR,,0.01,WeatherDisplay:10.37,2013-02-11 02:31:00,
2013-02-10 18:36:00,45.4,42.3,30.19,NNW,330,0.0,0.0,89,0.00,CLR,,0.01,WeatherDisplay:10.37,2013-02-11 02:36:00,
2013-02-10 18:41:00,45.3,42.2,30.19,NNW,330,0.0,0.0,89,0.00,CLR,,0.01,WeatherDisplay:10.37,2013-02-11 02:41:00,
2013-02-10 18:46:00,45.1,42.3,30.19,NNW,330,0.0,0.0,90,0.00,CLR,,0.01,WeatherDisplay:10.37,2013-02-11 02:46:00,
2013-02-10 18:51:00,45.1,42.1,30.19,NNW,330,0.0,0.0,89,0.00,CLR,,0.01,WeatherDisplay:10.37,2013-02-11 02:51:00,
2013-02-10 18:56:00,45.1,42.3,30.19,NNW,330,0.0,0.0,90,0.00,CLR,,0.01,WeatherDisplay:10.37,2013-02-11 02:56:00,
2013-02-10 19:01:00,45.2,42.4,30.19,NNW,330,0.0,0.0,90,0.00,CLR,,0.01,WeatherDisplay:10.37,2013-02-11 03:01:00,
2013-02-10 19:06:00,45.1,42.3,30.19,NNW,330,0.0,0.0,90,0.00,CLR,,0.01,WeatherDisplay:10.37,2013-02-11 03:06:00,
2013-02-10 19:11:00,45.1,42.3,30.20,NW,306,1.9,1.9,90,0.00,CLR,,0.01,WeatherDisplay:10.37,2013-02-11 03:11:00,
2013-02-10 19:16:00,45.1,42.3,30.19,WNW,287,0.0,0.0,90,0.00,CLR,,0.01,WeatherDisplay:10.37,2013-02-11 03:16:00,
2013-02-10 19:21:00,45.0,42.2,30.19,WNW,287,0.0,0.0,90,0.00,CLR,,0.01,WeatherDisplay:10.37,2013-02-11 03:21:00,
2013-02-10 19:26:00,45.0,42.0,30.19,WNW,287,0.0,0.0,89,0.00,CLR,,0.01,WeatherDisplay:10.37,2013-02-11 03:26:00,
2013-02-10 19:31:00,45.1,42.3,30.19,WNW,287,0.0,0.0,90,0.00,CLR,,0.01,WeatherDisplay:10.37,2013-02-11 03:31:00,
2013-02-10 19:36:00,45.1,42.3,30.19,WNW,287,0.0,0.0,90,0.00,CLR,,0.01,WeatherDisplay:10.37,2013-02-11 03:36:00,
2013-02-10 19:41:00,45.0,42.2,30.19,WNW,287,0.0,0.0,90,0.00,CLR,,0.01,WeatherDisplay:10.37,2013-02-11 03:41:00,
2013-02-10 19:46:00,44.9,42.1,30.19,WNW,287,0.0,0.0,90,0.00,CLR,,0.01,WeatherDisplay:10.37,2013-02-11 03:46:00,
2013-02-10 19:51:00,44.9,42.4,30.19,WNW,287,0.0,0.0,91,0.00,CLR,,0.01,WeatherDisplay:10.37,2013-02-11 03:51:00,
2013-02-10 19:56:00,44.8,42.3,30.19,WNW,287,0.0,0.0,91,0.00,CLR,,0.01,WeatherDisplay:10.37,2013-02-11 03:56:00,
2013-02-10 20:01:00,44.8,42.3,30.19,WNW,287,0.0,0.0,91,0.00,CLR,,0.01,WeatherDisplay:10.37,2013-02-11 04:01:00,
2013-02-10 20:06:00,44.7,42.2,30.19,WNW,287,0.0,0.0,91,0.00,CLR,,0.01,WeatherDisplay:10.37,2013-02-11 04:06:00,
2013-02-10 20:11:00,44.6,42.1,30.20,WNW,287,0.0,0.0,91,0.00,CLR,,0.01,WeatherDisplay:10.37,2013-02-11 04:11:00,
2013-02-10 20:16:00,44.7,42.2,30.20,WNW,287,0.0,0.0,91,0.00,CLR,,0.01,WeatherDisplay:10.37,2013-02-11 04:16:00,
2013-02-10 20:21:00,44.6,42.1,30.20,WNW,287,0.0,0.0,91,0.00,CLR,,0.01,WeatherDisplay:10.37,2013-02-11 04:21:00,
2013-02-10 20:26:00,44.7,42.5,30.19,WNW,287,0.0,0.0,92,0.00,CLR,,0.01,WeatherDisplay:10.37,2013-02-11 04:26:00,
2013-02-10 20:31:00,44.6,42.4,30.19,WNW,287,0.0,0.0,92,0.00,CLR,,0.01,WeatherDisplay:10.37,2013-02-11 04:31:00,
2013-02-10 20:36:00,44.4,42.2,30.20,WNW,287,0.0,0.0,92,0.00,CLR,,0.01,WeatherDisplay:10.37,2013-02-11 04:36:00,
2013-02-10 20:41:00,44.3,42.1,30.20,WNW,287,0.0,0.0,92,0.00,CLR,,0.01,WeatherDisplay:10.37,2013-02-11 04:41:00,
2013-02-10 20:46:00,44.2,42.3,30.20,WNW,287,0.0,0.0,93,0.00,CLR,,0.01,WeatherDisplay:10.37,2013-02-11 04:46:00,
2013-02-10 20:51:00,44.2,42.3,30.20,WNW,287,0.0,0.0,93,0.00,CLR,,0.01,WeatherDisplay:10.37,2013-02-11 04:51:00,
2013-02-10 20:56:00,44.3,42.4,30.20,WNW,287,0.0,0.0,93,0.00,CLR,,0.01,WeatherDisplay:10.37,2013-02-11 04:56:00,
2013-02-10 21:00:00,44.2,42.3,30.20,WNW,287,0.0,0.0,93,0.00,CLR,CLR,0.01,WeatherDisplay:10.37,2013-02-11 05:00:00,
2013-02-10 21:05:00,44.1,42.2,30.19,WNW,287,0.0,0.0,93,0.00,CLR,,0.01,WeatherDisplay:10.37,2013-02-11 05:05:00,
2013-02-10 21:10:00,44.1,42.2,30.20,WNW,287,0.0,0.0,93,0.00,CLR,,0.01,WeatherDisplay:10.37,2013-02-11 05:10:00,
2013-02-10 21:15:00,44.2,42.0,30.20,NW,305,2.3,2.3,92,0.00,CLR,,0.01,WeatherDisplay:10.37,2013-02-11 05:15:00,
2013-02-10 21:20:00,44.3,42.1,30.21,NW,305,0.0,0.0,92,0.00,CLR,,0.01,WeatherDisplay:10.37,2013-02-11 05:20:00,
2013-02-10 21:25:00,44.1,41.9,30.20,NW,305,0.0,0.0,92,0.00,CLR,,0.01,WeatherDisplay:10.37,2013-02-11 05:25:00,
2013-02-10 21:30:00,44.1,41.9,30.20,NW,305,0.0,0.0,92,0.00,CLR,,0.01,WeatherDisplay:10.37,2013-02-11 05:30:00,
2013-02-10 21:35:00,44.1,42.2,30.20,NW,305,0.0,0.0,93,0.00,CLR,,0.01,WeatherDisplay:10.37,2013-02-11 05:35:00,
2013-02-10 21:40:00,44.2,42.0,30.20,NW,305,0.0,0.0,92,0.00,CLR,,0.01,WeatherDisplay:10.37,2013-02-11 05:40:00,
2013-02-10 21:45:00,44.1,42.2,30.20,NW,305,0.0,0.0,93,0.00,CLR,,0.01,WeatherDisplay:10.37,2013-02-11 05:45:00,
2013-02-10 21:50:00,44.1,42.2,30.20,NW,305,0.0,0.0,93,0.00,CLR,,0.01,WeatherDisplay:10.37,2013-02-11 05:50:00,
2013-02-10 21:55:00,44.0,41.8,30.20,NW,305,0.0,0.0,92,0.00,CLR,,0.01,WeatherDisplay:10.37,2013-02-11 05:55:00,
2013-02-10 22:00:00,44.1,42.2,30.20,NW,305,0.0,0.0,93,0.00,CLR,,0.01,WeatherDisplay:10.37,2013-02-11 06:00:00,
2013-02-10 22:05:00,44.1,41.9,30.20,NW,305,0.0,0.0,92,0.00,CLR,,0.01,WeatherDisplay:10.37,2013-02-11 06:05:00,
2013-02-10 22:10:00,44.1,42.2,30.19,NW,305,0.0,0.0,93,0.00,CLR,,0.01,WeatherDisplay:10.37,2013-02-11 06:10:00,
2013-02-10 22:15:00,43.9,42.0,30.19,NW,305,0.0,0.0,93,0.00,CLR,,0.01,WeatherDisplay:10.37,2013-02-11 06:15:00,
2013-02-10 22:20:00,43.9,42.0,30.20,NW,305,0.0,0.0,93,0.00,CLR,,0.01,WeatherDisplay:10.37,2013-02-11 06:20:00,
2013-02-10 22:25:00,43.9,42.0,30.20,NW,305,0.0,0.0,93,0.00,CLR,,0.01,WeatherDisplay:10.37,2013-02-11 06:25:00,
2013-02-10 22:30:00,44.0,42.1,30.19,NW,305,0.0,0.0,93,0.00,CLR,,0.01,WeatherDisplay:10.37,2013-02-11 06:30:00,
2013-02-10 22:35:00,43.9,42.3,30.19,NW,305,0.0,0.0,94,0.00,CLR,,0.01,WeatherDisplay:10.37,2013-02-11 06:35:00,
2013-02-10 22:40:00,43.9,42.3,30.19,NW,305,0.0,0.0,94,0.00,CLR,,0.01,WeatherDisplay:10.37,2013-02-11 06:40:00,
2013-02-10 22:45:00,43.7,42.1,30.20,NW,305,0.0,0.0,94,0.00,CLR,,0.01,WeatherDisplay:10.37,2013-02-11 06:45:00,
2013-02-10 22:50:00,43.7,42.1,30.19,NW,305,0.0,0.0,94,0.00,CLR,,0.01,WeatherDisplay:10.37,2013-02-11 06:50:00,
2013-02-10 22:55:00,43.8,42.2,30.19,NW,305,0.0,0.0,94,0.00,CLR,,0.01,WeatherDisplay:10.37,2013-02-11 06:55:00,
2013-02-10 23:00:00,43.8,42.2,30.19,NW,305,0.0,0.0,94,0.00,CLR,,0.01,WeatherDisplay:10.37,2013-02-11 07:00:00,
2013-02-10 23:05:00,43.6,42.0,30.19,NW,305,0.0,0.0,94,0.00,CLR,,0.01,WeatherDisplay:10.37,2013-02-11 07:05:00,
2013-02-10 23:10:00,43.7,42.1,30.19,NW,305,0.0,0.0,94,0.00,CLR,,0.01,WeatherDisplay:10.37,2013-02-11 07:10:00,
2013-02-10 23:15:00,43.6,42.0,30.19,NW,305,0.0,0.0,94,0.00,CLR,,0.01,WeatherDisplay:10.37,2013-02-11 07:15:00,
2013-02-10 23:20:00,43.7,42.4,30.19,NW,305,0.0,0.0,95,0.00,CLR,,0.01,WeatherDisplay:10.37,2013-02-11 07:20:00,
2013-02-10 23:25:00,43.7,42.4,30.19,NW,305,0.0,0.0,95,0.00,CLR,,0.01,WeatherDisplay:10.37,2013-02-11 07:25:00,
2013-02-10 23:30:00,43.7,42.1,30.19,NW,305,0.0,0.0,94,0.00,CLR,,0.01,WeatherDisplay:10.37,2013-02-11 07:30:00,
2013-02-10 23:35:00,43.6,42.0,30.19,NW,305,0.0,0.0,94,0.00,CLR,,0.01,WeatherDisplay:10.37,2013-02-11 07:35:00,
2013-02-10 23:40:00,43.6,42.0,30.19,NW,305,0.0,0.0,94,0.00,CLR,,0.01,WeatherDisplay:10.37,2013-02-11 07:40:00,
2013-02-10 23:45:00,43.7,42.1,30.19,NW,305,0.0,0.0,94,0.00,CLR,,0.01,WeatherDisplay:10.37,2013-02-11 07:45:00,
2013-02-10 23:50:00,43.7,42.1,30.19,NW,305,0.0,0.0,94,0.00,CLR,,0.01,WeatherDisplay:10.37,2013-02-11 07:50:00,
2013-02-10 23:55:00,43.7,42.1,30.19,NW,305,0.0,0.0,94,0.00,CLR,,0.01,WeatherDisplay:10.37,2013-02-11 07:55:00,